Weather History for Boston, MA

Change the Weather History Date:

Sunday, November 25, 2012

  Actual Average Record
Temperature  
Mean Temperature 36 °F 42 °F  
Max Temperature 40 °F 48 °F 70 °F (1979)
Min Temperature 31 °F 35 °F 13 °F (1938)
Degree Days  
Heating Degree Days 29 23  
Month to date heating degree days 535 488  
Since 1 July heating degree days 871 935  
Cooling Degree Days 0 0  
Month to date cooling degree days 0 0  
Year to date cooling degree days 905 747  
Moisture  
Dew Point 17 °F    
Average Humidity 47    
Maximum Humidity 61    
Minimum Humidity 32    
Precipitation  
Precipitation 0.00 in 0.14 in 2.76 in (1983)
Month to date precipitation 0.86 3.31  
Year to date precipitation 30.65 39.31  
Sea Level Pressure  
Sea Level Pressure 29.77 in    
Wind  
Wind Speed 16 mph (West)    
Max Wind Speed 31 mph    
Max Gust Speed 37 mph    
Visibility 10 miles    
Events      
T = Trace of Precipitation, MM = Missing Value Source: NWS Daily Summary

Daily Weather History Graph

Daily Weather History Graph

Search for Another Location

Airport:

Trip Planner

Search our weather history database for the weather conditions in past years. The results will help you decide how hot, cold, wet, or windy it might be!

Date:

Astronomy

Nov. 25, 2012 Rise Set
Actual Time 6:47 AM EST 4:14 PM EST
Civil Twilight 6:16 AM EST 4:45 PM EST
Nautical Twilight 5:41 AM EST 5:20 PM EST
Astronomical Twilight 5:08 AM EST 5:53 PM EST
Moon 2:31 PM EST (11/25) 3:56 AM EST (11/25)
Length of Visible Light 10h 29m
Length of Day
9h 27m
Waxing Gibbous, 93% of the Moon is Illuminated
Nov 25
Waxing Gibbous
Nov 28
Full
Dec 6
Last Quarter
Dec 13
New
Dec 20
First Quarter

Hourly Weather History & Observations

Time (EST) Temp. Windchill Dew Point Humidity Pressure Visibility Wind Dir Wind Speed Gust Speed Precip Events Conditions
12:54 AM 33.1 °F 23.0 °F 16.0 °F 50% 29.66 in 10.0 mi West 15.0 mph - N/A   Partly Cloudy
1:54 AM 33.1 °F 22.2 °F 16.0 °F 50% 29.69 in 10.0 mi West 17.3 mph 26.5 mph N/A   Scattered Clouds
2:54 AM 33.1 °F 22.6 °F 16.0 °F 50% 29.70 in 10.0 mi West 16.1 mph 25.3 mph N/A   Scattered Clouds
3:54 AM 32.0 °F 21.2 °F 15.1 °F 50% 29.70 in 10.0 mi West 16.1 mph 24.2 mph N/A   Partly Cloudy
4:54 AM 32.0 °F 21.2 °F 15.1 °F 50% 29.73 in 10.0 mi West 16.1 mph 26.5 mph N/A   Clear
5:54 AM 32.0 °F 21.2 °F 14.0 °F 48% 29.74 in 10.0 mi West 16.1 mph 25.3 mph N/A   Clear
6:54 AM 32.0 °F 21.2 °F 14.0 °F 48% 29.76 in 10.0 mi West 16.1 mph 27.6 mph N/A   Scattered Clouds
7:54 AM 32.0 °F 20.5 °F 15.1 °F 50% 29.78 in 10.0 mi West 18.4 mph 24.2 mph N/A   Scattered Clouds
8:54 AM 34.0 °F 25.5 °F 15.1 °F 46% 29.78 in 10.0 mi West 11.5 mph 24.2 mph N/A   Scattered Clouds
9:54 AM 36.0 °F 26.3 °F 16.0 °F 44% 29.78 in 10.0 mi West 16.1 mph 24.2 mph N/A   Mostly Cloudy
10:54 AM 37.0 °F 27.4 °F 16.0 °F 42% 29.76 in 10.0 mi West 17.3 mph 23.0 mph N/A   Mostly Cloudy
11:54 AM 37.9 °F 26.8 °F 10.9 °F 33% 29.73 in 10.0 mi West 24.2 mph 35.7 mph N/A   Mostly Cloudy
12:54 PM 39.0 °F 30.3 °F 14.0 °F 36% 29.73 in 10.0 mi WNW 16.1 mph 24.2 mph N/A   Mostly Cloudy
1:54 PM 39.0 °F 29.9 °F 15.1 °F 38% 29.73 in 10.0 mi West 17.3 mph 28.8 mph N/A   Mostly Cloudy
2:54 PM 37.9 °F 26.8 °F 16.0 °F 41% 29.74 in 10.0 mi West 24.2 mph 33.4 mph N/A   Overcast
3:54 PM 37.9 °F 28.5 °F 18.0 °F 45% 29.76 in 10.0 mi West 17.3 mph - N/A   Overcast
4:54 PM 37.0 °F 28.5 °F 19.0 °F 48% 29.78 in 10.0 mi West 13.8 mph 21.9 mph N/A   Overcast
5:54 PM 37.0 °F 27.7 °F 19.9 °F 50% 29.81 in 10.0 mi West 16.1 mph 26.5 mph N/A   Scattered Clouds
6:54 PM 36.0 °F 26.7 °F 19.9 °F 52% 29.83 in 10.0 mi West 15.0 mph 26.5 mph N/A   Partly Cloudy
7:54 PM 35.1 °F 26.9 °F 21.0 °F 57% 29.84 in 10.0 mi SW 11.5 mph - N/A   Partly Cloudy
8:54 PM 33.1 °F 24.4 °F 21.0 °F 61% 29.84 in 10.0 mi SW 11.5 mph - N/A   Partly Cloudy
9:54 PM 33.1 °F 23.9 °F 19.9 °F 59% 29.85 in 10.0 mi SW 12.7 mph - N/A   Partly Cloudy
10:54 PM 33.1 °F 22.6 °F 19.9 °F 59% 29.86 in 10.0 mi WSW 16.1 mph - N/A   Partly Cloudy
11:54 PM 34.0 °F 23.0 °F 21.9 °F 61% 29.87 in 10.0 mi WSW 18.4 mph - N/A   Partly Cloudy